NEOSSAT (39089 NORAD) Tracking and Keplerian Element Data

This shows tracking and keplerian element data for the satellite.

Feedback or suggestion? Click here.




ElementValue
Catalog39089
NameNEOSSAT
Epoch Orbit28206
Epoch Day198.54232887
Epoch Year2018
RAAN42.2653
Inclination98.5233
Eccentricity0.0010612
Argument of Perigee201.9838
Mean Anonmoly158.0893
Mean Motion14.34432227
Decay Rate-1.6E-07
L11 39089U 13009D 18198.54232887 -.00000016 00000-0 96876-5 0 9997
L22 39089 98.5233 42.2653 0010612 201.9838 158.0893 14.34432227282068

Live tracking and technical data element details for NEOSSAT (NORAD 39089). NEOSSAT can be tracked NOW for your location showing map with azimuth and elevation plus other details from your city location.

Track the satellite on the map from your city or location and see movement details for azimuth, elevation, latitude, longitude, range, height, and movement on the map or in text.







IsCatalogInMostPopularTable: catalog: 39089, numindb: 65
Update: records affected: 1



GetName: 39089 NEOSSAT

Hit Count: updated at: Fri, 20 Jul 2018 20:35:16 GMT